Regional Weather Roundup
Issued by NWS Northern Indiana

Home | Current Version | Previous Version | Graphics & Text | Print | Product List | Glossary On
Versions: 1 2 3 4 5 6 7 8 9 10 11 12 13 14 15 16 17 18 19 20 21 22 23 24 25 26 27 28 29 30 31 32 33 34 35 36 37 38 39 40 41 42 43 44 45 46 47 48 49 50
000
ASUS43 KIWX 171710
RWRIWX

KIWX WEATHER ROUNDUP
NATIONAL WEATHER SERVICE NORTHERN INDIANA
1200 PM EST FRI NOV 17 2017

NOTE: "FAIR" INDICATES FEW OR NO CLOUDS BELOW 12,000 FEET WITH NO
SIGNIFICANT WEATHER AND/OR OBSTRUCTIONS TO VISIBILITY.

* THESE STATIONS ARE NOT UNDER NWS QUALITY CONTROL. THEY ALSO MAY NOT
  REPORT WEATHER SUCH AS PRECIPITATION OR FOG.

INZ001>027-171800-
NORTHERN INDIANA

CITY           SKY/WX    TMP DP  RH WIND       PRES   REMARKS
GARY*          CLOUDY    43  30  61 SE26      30.02F
VALPARAISO     CLOUDY    44  33  65 S13G23    30.04F
MICHIGAN CITY* CLOUDY    41  32  70 SE10G21   30.04F
LAPORTE*       CLOUDY    40  33  75 S14       30.05F
KNOX*          CLOUDY    41  32  70 SE15      30.07F
SOUTH BEND     CLOUDY    40  33  76 SE16      30.06F
GOSHEN         MOSUNNY   41  31  67 SE13      30.09F
MONTICELLO*    CLOUDY    40  32  72 SE12G17   30.07F
LOGANSPORT*    CLOUDY    41  32  70 SE16      30.08F
ROCHESTER*     CLOUDY    43  32  65 SE13      30.08F
WARSAW*        MOSUNNY   41  32  70 SE10      30.10F
AUBURN*        PTSUNNY   43  32  65 SE7       30.13F
FORT WAYNE     PTSUNNY   43  34  70 SE15      30.12F
HUNTINGTON*    SUNNY     42  32  69 SE12      30.10F
PERU/GRISSOM   SUNNY     42  34  73 S15       30.07F
MARION*        SUNNY     41  33  72 S14       30.11F

$$
INZ028>050-171800-
CENTRAL INDIANA

CITY           SKY/WX    TMP DP  RH WIND       PRES   REMARKS
LAFAYETTE      CLOUDY    41  33  73 SE9G17    30.07F
KOKOMO*        CLOUDY    42  33  70 SE16      30.09F
MUNCIE*        SUNNY     44  32  62 SE12      30.12F
INDIANAPOLIS   CLOUDY    40  32  73 S13       30.11F

$$
MIZ043>046-050>051-056>058-064>065-071>073-077>080-171800-
SOUTHWEST LOWER MICHIGAN

CITY           SKY/WX    TMP DP  RH WIND       PRES   REMARKS
BATTLE CREEK   CLOUDY    40  31  70 S13G20    30.10F
BENTON HARBOR  CLOUDY    41  31  67 SE16G24   30.03F
COLDWATER*     CLOUDY    38  31  74 SE13G20   30.11F
HILLSDALE*     MOSUNNY   36  30  80 S14G24    30.11F
HOLLAND        CLOUDY    39  31  72 SE12      30.05F
GRAND RAPIDS   CLOUDY    39  32  76 SE16      30.07F
KALAMAZOO      MOSUNNY   40  30  67 S13G18    30.09F
STURGIS*       CLOUDY    39  32  75 SE12G20   30.10F
THREE RIVERS*  FAIR      40  32  71 S10       30.10F

$$
OHZ001>008-015>018-024>025-171800-
NORTHWEST OHIO

CITY           SKY/WX    TMP DP  RH WIND       PRES   REMARKS
WAUSEON*       PTSUNNY   43  34  70 S17       30.17F
DEFIANCE       PTSUNNY   40  31  70 SE10      30.16F
FINDLAY        CLOUDY    41  30  65 S14       30.17F
TOLEDO EXPRESS MOSUNNY   41  32  70 S12       30.17F
TOLEDO METCALF CLOUDY    41  30  65 S15       30.19F
LIMA           MOSUNNY   41  33  73 S14       30.16F

$$
AND FOR LAKE MICHIGAN COASTAL AND OPEN LAKE BUOY OBSERVATIONS

STATION/POSITION TEMP    WIND        PRES    VSBY  WAVE
                 AIR SEA DIR/SP/G                  HT/PER
                 (F)     (DEG/KT/KT) (MB)    (MI)  (FT/S)
CALUMET HARBOR    40     160/ 11/ 14 1015.7F
MICHIGAN CITY     40     140/ 17/ 21   N/A
BURNS HARBOR      41     170/ 17/ 25 1017.3F
SAINT JOSEPH      42     190/  7/ 12 1016.9
SOUTH LAKE BUOY   40 50  150/ 21/ 25 1017.9          5/ 5

$$
&&




USA.gov is the U.S. government's official web portal to all federal, state and local government web resources and services.